Regional Weather Roundup
Issued by NWS Columbia, SC

Home | Current Version | Previous Version | Text Only | Print | Product List | Glossary On
Versions: 1 2 3 4 5 6 7 8 9 10 11 12 13 14 15 16 17 18 19 20 21 22 23 24 25 26 27 28 29 30 31 32 33 34 35 36 37 38 39 40 41 42 43 44 45 46 47 48 49 50
000
ASUS42 KCAE 240310
RWRCAE
REGIONAL WEATHER ROUNDUP
NATIONAL WEATHER SERVICE COLUMBIA SC
1100 PM EDT MON APR 23 2018

NOTE: "FAIR" INDICATES FEW OR NO CLOUDS BELOW 12,000 FEET WITH NO
SIGNIFICANT WEATHER AND/OR OBSTRUCTIONS TO VISIBILITY.

NOT ALL STATIONS ARE QUALITY CONTROLLED BY THE NATIONAL
WEATHER SERVICE. USE DATA WITH CAUTION...ESPECIALLY
DEWPOINT OBSERVATIONS.

SCZ001>056-GAZ040-063>065-077-240400-
...UPSTATE SOUTH CAROLINA...

CITY           SKY/WX    TMP DP  RH WIND       PRES   REMARKS
ANDERSON       CLOUDY    61  59  93 E13G23    29.95F FOG
LIBERTY        LGT RAIN  57  57 100 E8G17     29.97S
SPARTANBURG    LGT RAIN  55  54  94 E13G24    30.01S
CLEMSON        LGT RAIN  58  57  97 E7G20     29.96F FOG
GREENVILLE     CLOUDY    58  57  97 E18G26    30.01S
GREENWOOD      LGT RAIN  60  60 100 E12G17    29.97S FOG
GREER          CLOUDY    57  57 100 E14G24    30.01S
ROCK HILL      LGT RAIN  57  56  96 E6        30.07F FOG
CHESTER        DRIZZLE   55  55 100 E12       30.06S
LAURENS        LGT RAIN  59  57  94 E15G22    29.98F


...CENTRAL SOUTH CAROLINA...

CITY           SKY/WX    TMP DP  RH WIND       PRES   REMARKS
COLUMBIA APT   LGT RAIN  64  63  96 E12       29.97F
COLUMBIA OWENS CLOUDY    63  61  93 VRB5      29.99F
MCENTIRE ANGB  MOCLDY    62  62 100 E10       29.98F
ORANGEBURG     LGT RAIN  64  63  96 E5        29.97F
SUMTER SHAW    HVY RAIN  61  61 100 N8        29.99S FOG
AIKEN          TSTM      61  61 100 E7        29.98S
BARNWELL       CLOUDY    66  66 100 E7        29.94F
MANNING        DRIZZLE   61  59  94 SE8       29.99F
CAMDEN         RAIN      59  59 100 NE12      30.03F
LANCASTER        N/A     57  57 100 E15G22    30.05F
WINNSBORO      CLOUDY    59  59 100 E13G18    30.00F


...EASTERN AND COASTAL SOUTH CAROLINA...

CITY           SKY/WX    TMP DP  RH WIND       PRES   REMARKS
MYRTLE BEACH   LGT RAIN  64  62  93 E24G33    30.06F
N MYRTLE BCH   RAIN      64  62  93 E17G31    30.07F FOG
CONWAY         LGT RAIN  61  61 100 E12G17    30.05F
MARION         LGT RAIN  61  59  94 E10G21    30.06F
HARTSVILLE     LGT RAIN  59  57  94 E13       30.03F
FLORENCE       RAIN      62  60  93 E16       30.04S FOG
DARLINGTON     LGT RAIN  60  59  96 E15G22    30.05F
CHARLESTON APT CLOUDY    67  65  93 SE15      29.97F
MOUNT PLEASANT DRIZZLE   66  64  94 SE12G18   29.99F
WALTERBORO     RAIN      64  64 100 E7        29.96F
BEAUFORT       CLOUDY    70  69  97 SE7       29.93


...EASTERN GEORGIA...

CITY           SKY/WX    TMP DP  RH WIND       PRES   REMARKS
AUGUSTA BUSH F LGT RAIN  66  65  96 E13G18    29.89F
AUGUSTA DANIEL LGT RAIN  66  64  93 E9        29.90F
THOMSON        LGT RAIN  65  64  96 S5        29.96F FOG
WASHINGTON     LGT RAIN  63  63 100 E9        29.89F
CLAXTON        CLOUDY    72  69  92 E5        29.90F
SYLVANIA       CLOUDY    70  66  88 CALM      29.92F THUNDER
STATESBORO     CLOUDY    69  60  73 CALM      29.91F
SAVANNAH       CLOUDY    70  68  93 E8        29.92F


...SOUTHERN NORTH CAROLINA...

CITY           SKY/WX    TMP DP  RH WIND       PRES   REMARKS
CHARLOTTE      LGT RAIN  57  56  96 E12G20    30.08F FOG
MONROE         LGT RAIN  57  56  96 E12G23    30.06F
WADESBORO      RAIN      58  55  91 E8        30.09F
ROCKINGHAM     RAIN      57  57 100 E7        30.09F
RUTHERFORDTON  CLOUDY    55  55 100 E14G22    30.07F
ASHEVILLE      LGT RAIN  54  51  90 E9G23     30.03F FOG

$$



USA.gov is the U.S. government's official web portal to all federal, state and local government web resources and services.